Regional Weather Roundup
Issued by NWS

Home | Current Version | Previous Version | Graphics & Text | Print | Product List | Glossary On
Versions: 1 2 3 4 5 6 7 8 9 10 11 12 13 14 15 16 17 18 19 20 21 22 23 24 25 26 27 28 29 30 31 32 33 34 35 36 37 38 39 40 41 42 43 44 45 46 47 48 49 50
000
ASUS44 KMEG 240810
RWRTN
TENNESSEE HOURLY STATE WEATHER ROUNDUP
NATIONAL WEATHER SERVICE MEMPHIS TN
300 AM CDT SAT JUN 24 2017

TNZ002-004-019-021-049-052-054-088>092-240900-
WEST TENNESSEE

CITY           SKY/WX    TMP DP  RH WIND       PRES   REMARKS
MEMPHIS INTL   CLOUDY    72  71  97 N7        29.95S
NWS MEMPHIS      N/A     70 N/A N/A MISG        N/A
JACKSON        CLOUDY    72  71  97 N3        29.95R
SOMERVILLE     CLEAR     72  70  94 NW5       29.94R
COVINGTON      CLEAR     70  70 100 N3        29.95S
UNION CITY     CLEAR     68  64  88 CALM      29.95R
BOLIVAR        PTCLDY    70  70 100 CALM      29.93F
PARIS          CLEAR     66  66 100 CALM      29.94S
HUNTINGDON     CLEAR     70  68  94 CALM      29.95R
LEXINGTON      MOCLDY    72  70  94 NW5       29.94R
SELMER         PTCLDY    72  70  94 N5        29.93S
SAVANNAH       PTCLDY    73  72  94 CALM      29.92R
$$

TNZ008-025-027-028-033-062-065-066-240900-
NORTH MIDDLE TENNESSEE

CITY           SKY/WX    TMP DP  RH WIND       PRES   REMARKS
NASHVILLE      CLOUDY    75  69  81 N7        29.93S
PORTLAND       PTCLDY    72  70  94 N5        29.92S
CLARKSVILLE    CLOUDY    69  67  93 NW5       29.93S
SMYRNA         CLOUDY    75  70  84 N9        29.93R
COOKEVILLE     CLOUDY    73  73 100 SW5       29.91R
GALLATIN       CLOUDY    73  70  88 N5        29.94S
CROSSVILLE     RAIN      71  70  96 W5        29.95F FOG
$$

TNZ061-075-076-078-094-096-097-240900-
SOUTH MIDDLE TENNESSEE

CITY           SKY/WX    TMP DP  RH WIND       PRES   REMARKS
FAYETTEVILLE   CLOUDY    75  73  94 SW3       29.93S
TULLAHOMA        N/A     73  72  94 CALM      29.95R
WINCHESTER     MOCLDY    73  73 100 CALM        N/A
MCMINNVILLE    CLOUDY    73  73 100 CALM      29.93R
COLUMBIA       CLOUDY    73  73 100 CALM      29.91S
SHELBYVILLE    CLOUDY    73  73 100 W3        29.93R
$$

TNZ017-018-042-046-047-240900-
NORTHEAST TENNESSEE

CITY           SKY/WX    TMP DP  RH WIND       PRES   REMARKS
TRI CITIES     PTCLDY    65  64  97 CALM      29.94S
ELIZABETHTON   PTCLDY    64  64 100 CALM      29.95R
$$

TNZ012-013-036-069-073-074-240900-
CENTRAL EAST TENNESSEE

CITY           SKY/WX    TMP DP  RH WIND       PRES   REMARKS
KNOXVILLE      CLOUDY    72  70  93 VRB7      29.91S
OAK RIDGE      CLOUDY    74  71  91 VRB3      29.92S
DOWNTOWN KNOXV   N/A     73  73 100 W6        29.91R
GATLINBURG     MOCLDY    70  70 100 CALM      29.91S
MORRISTOWN     CLOUDY    68  66  94 CALM      29.93R
JACKSBORO        N/A     70  70 100 NE5       29.95S
$$

TNZ083-085-099-240900-
SOUTHEAST TENNESSEE

CITY           SKY/WX    TMP DP  RH WIND       PRES   REMARKS
CHATTANOOGA    CLOUDY    74  72  93 S5        29.93R
$$

SKY/WX REPORTED AS FAIR MEANS FEW OR NO CLOUDS BELOW
12 THOUSAND FEET.





USA.gov is the U.S. government's official web portal to all federal, state and local government web resources and services.